Hourly Data Report for October 23, 2016

All times are specified in Local Standard Time (LST). Add 1 hour to adjust for Daylight Saving Time where and when it is observed.

KUGAARUK CLIMATE
NUNAVUT

68°32'15.060" N
89°47'47.020" W
15.80 m
2303094
71407
NBB

Download Data

Hourly Data (October 2016)
Hourly Data Report for October 23, 2016
Temp Definition
°C
Dew Point Temp Definition
°C
Rel Hum Definition
%
Wind Dir Definition
10's deg

Wind Spd Definition
km/h
Visibility Definition
km
Stn Press Definition
kPa
Hmdx Definition


Wind Chill Definition


Weather Definition


TIME
00:00 -17.4 -19.4 85 5 3   103.31   -20 LegendNANA
01:00 -18.9 -21.0 83 9 2   103.33   -21 LegendNANA
02:00 -20.3 -22.5 83 5 3   103.35   -23 LegendNANA
03:00 -21.7 -24.1 81 6 5   103.37   -26 LegendNANA
04:00 -22.1 -24.6 80 6 3   103.39   -25 LegendNANA
05:00 -21.7 -24.0 81 9 8   103.37   -28 LegendNANA
06:00 -21.3 -23.7 81 9 3   103.39   -24 LegendNANA
07:00 -18.1 -20.1 84 7 4   103.39   -21 LegendNANA
08:00 -16.5 -18.4 85 5 8   103.40   -22 LegendNANA
09:00 -14.9 -16.7 86 6 6   103.43   -19 LegendNANA
10:00 -13.7 -15.7 85 3 6   103.43   -18 LegendNANA
11:00 -10.1 -11.9 87 36 3   103.42   -12 LegendNANA
12:00 -6.8 -9.4 82 22 7   103.42   -10 LegendNANA
13:00 -6.8 -9.3 83 22 6   103.42   -10 LegendNANA
14:00 -6.6 -9.2 82 21 6   103.43   -10 LegendNANA
15:00 -7.0 -9.6 81 23 11   103.42   -12 LegendNANA
16:00 -7.1 -9.4 83 25 3   103.41   -9 LegendNANA
17:00 -6.9 -9.2 83 20 8   103.40   -11 LegendNANA
18:00 -7.2 -9.6 83 23 13   103.41   -13 LegendNANA
19:00 -7.1 -9.7 82 22 18   103.40   -14 LegendNANA
20:00 -7.5 -9.8 83 23 19   103.37   -15 LegendNANA
21:00 -7.9 -10.2 83 22 19   103.36   -15 LegendNANA
22:00 -7.8 -10.0 84 21 16   103.31   -14 LegendNANA
23:00 -7.6 -9.9 84 21 15   103.29   -14 LegendNANA

Notes on Data Quality.

Legend

  • E = Estimated
  • M = Missing
  • NA = Not Available
  • ‡ = Partner data that is not subject to review by the National Climate Archives
Date modified: